TimeCEST,TemperatureF,Dew PointF,Humidity,Sea Level PressureIn,VisibilityMPH,Wind Direction,Wind SpeedMPH,Gust SpeedMPH,PrecipitationIn,Events,Conditions,WindDirDegrees,DateUTC
12:55 AM,44.6,39.2,81,29.95,-9999.0,South,3.5,-,N/A,,Clear,170,2012-10-25 22:55:00
1:55 AM,42.8,41.0,93,29.92,-9999.0,Calm,Calm,-,N/A,,Clear,0,2012-10-25 23:55:00
2:00 AM,43,41,88,,6,Calm,Calm,,,,Clear,,2012-10-26 00:00:00
2:55 AM,41.0,41.0,100,29.92,5.0,WSW,6.9,-,N/A,,Unknown,240,2012-10-26 00:55:00
3:55 AM,41.0,41.0,100,29.92,3.7,WSW,5.8,-,N/A,,Unknown,240,2012-10-26 01:55:00
4:55 AM,39.2,39.2,100,29.89,0.9,Calm,Calm,-,N/A,,Mist,0,2012-10-26 02:55:00
5:00 AM,40,39,96,,1,Calm,Calm,,,,Mist,,2012-10-26 03:00:00
5:55 AM,39.2,39.2,100,29.86,0.1,West,4.6,-,N/A,Fog,Fog,260,2012-10-26 03:55:00
6:55 AM,39.2,39.2,100,29.86,0.0,SW,2.3,-,N/A,Fog,Fog,220,2012-10-26 04:55:00
7:55 AM,37.4,37.4,100,29.83,0.0,SW,9.2,-,N/A,Fog,Fog,230,2012-10-26 05:55:00
8:00 AM,37,37,100,,0,SW,9.2,,,Fog,Heavy Fog,230,2012-10-26 06:00:00
8:55 AM,37.4,37.4,100,29.83,0.0,SW,10.4,-,N/A,Fog,Fog,220,2012-10-26 06:55:00
9:55 AM,37.4,37.4,100,29.83,0.0,South,8.1,-,N/A,Fog,Fog,190,2012-10-26 07:55:00
10:55 AM,37.4,37.4,100,29.83,0.0,South,11.5,-,N/A,Fog,Fog,190,2012-10-26 08:55:00
11:00 AM,38,38,99,,0,South,11.5,,,Fog,Heavy Fog,190,2012-10-26 09:00:00
11:55 AM,37.4,37.4,100,29.80,0.0,SSW,16.1,-,N/A,Fog,Fog,200,2012-10-26 09:55:00
12:55 PM,39.2,39.2,100,29.80,0.0,SW,21.9,-,N/A,Fog-Rain,Light Rain,230,2012-10-26 10:55:00
1:55 PM,39.2,39.2,100,29.77,0.0,SSW,16.1,27.6,N/A,Fog-Rain,Light Rain,210,2012-10-26 11:55:00
2:00 PM,39,39,100,,0,SSW,16.1,,,Rain,Light Rain,210,2012-10-26 12:00:00
2:55 PM,39.2,39.2,100,29.74,0.0,SSW,16.1,27.6,N/A,Fog-Rain,Light Rain,200,2012-10-26 12:55:00
3:55 PM,37.4,37.4,100,29.71,0.0,SSW,17.3,28.8,N/A,Fog-Rain,Light Rain,200,2012-10-26 13:55:00
4:55 PM,37.4,37.4,100,29.68,0.0,SSW,16.1,27.6,N/A,Fog-Rain,Light Rain,210,2012-10-26 14:55:00
5:55 PM,37.4,37.4,100,29.65,0.0,South,12.7,-,N/A,Fog-Rain,Light Rain,180,2012-10-26 15:55:00
6:55 PM,37.4,37.4,100,29.65,0.0,South,10.4,-,N/A,Fog-Rain,Light Rain,190,2012-10-26 16:55:00
7:55 PM,37.4,37.4,100,29.62,0.0,South,10.4,-,N/A,Fog-Rain,Light Rain,180,2012-10-26 17:55:00
8:55 PM,37.4,37.4,100,29.62,0.0,South,16.1,-,N/A,Fog-Rain,Light Rain,170,2012-10-26 18:55:00
9:55 PM,37.4,37.4,100,29.59,0.0,South,10.4,-,N/A,Fog-Rain,Light Rain,170,2012-10-26 19:55:00
10:55 PM,37.4,37.4,100,29.56,0.0,South,11.5,-,N/A,Fog,Fog,170,2012-10-26 20:55:00
11:00 PM,37,37,100,,0,South,11.5,,,Fog,Heavy Fog,170,2012-10-26 21:00:00
11:55 PM,37.4,37.4,100,29.53,0.0,South,10.4,-,N/A,Fog,Fog,170,2012-10-26 21:55:00